Location: Bord�res
(43.2000°N, 0.2167°W)
Time: 14:34:02
(UTC+00:00)

Cosmos 2322 - Pass Details

Date: 03 March 2021
Orbit: 842 x 853 km, 71.0° (Epoch: 21 April)

Event Time Altitude Azimuth Distance (km) Brightness Sun altitude
Rises 19:42:13 0° 199° (SSW) 3,406 7.0 -20.7°
Reaches altitude 10° 19:44:39 10° 198° (SSW) 2,474 6.2 -21.1°
Maximum altitude 19:50:21 80° 112° (ESE) 870 3.6 -22.1°
Drops below altitude 10° 19:56:04 10° 27° (NNE) 2,489 6.0 -23.2°
Sets 19:58:32 0° 26° (NNE) 3,427 6.7 -23.6°
